This demonstration page uses our WeatherBlox Daily Observations layout. Learn more.

Left ArrowRight Arrow

39.51506, -84.39828

Hourly Observations for March 10, 2020

Temp ( °F °C ) Dew Point ( °F °C ) Humidity (%) Winds ( mph kmh ) Pressure ( in mb ) Visibility ( mi km ) Precip ( " mm )
12:15 am 00:15 Cloudy 59 14.8 48 8.7 67 67 S 17 28 30.11 1020 10 16.0934 0 0
12:35 am 00:35 Cloudy 59 14.9 47 8.5 66 66 SSW 16 26 30.1 1019 10 16.0934 0 0
12:55 am 00:55 Cloudy 59 14.8 47 8.5 66 66 SSW 18 30 30.08 1019 10 16.0934 0 0
1:15 am 01:15 Cloudy 59 14.9 47 8.3 65 65 S 20 31 30.07 1018 10 16.0934 0 0
1:35 am 01:35 Cloudy 59 14.9 47 8.3 65 65 SSW 16 26 30.06 1018 10 16.0934 0 0
1:55 am 01:55 Cloudy with Light Rain 58 14.5 48 8.8 69 69 SSW 17 28 30.05 1018 10 16.0934 0 0
2:15 am 02:15 Cloudy 59 14.8 48 8.8 68 68 SSW 14 22 30.05 1018 10 16.0934 0 0
2:35 am 02:35 Cloudy with Light Rain 56 13.3 51 10.4 83 83 SSW 16 26 30.05 1018 7 11.26538 0 0
2:55 am 02:55 Cloudy 56 13.2 51 10.7 85 85 SSW 14 22 30.05 1018 10 16.0934 0 0
3:15 am 03:15 Cloudy with Light Rain 55 12.9 52 11.1 89 89 SSW 17 28 30.04 1017 10 16.0934 0 0
3:35 am 03:35 Cloudy with Light Rain 55 12.7 53 11.4 92 92 SSW 14 22 30.04 1017 5 8.0467 0 0
3:55 am 03:55 Cloudy with Rain 55 12.9 53 11.4 91 91 SSW 15 24 30.03 1017 7 11.26538 0 0
4:15 am 04:15 Cloudy with Light Rain 55 13 53 11.4 90 90 SSW 16 26 30.02 1017 10 16.0934 0 0
4:35 am 04:35 Cloudy 56 13.2 53 11.4 89 89 SSW 16 26 30.01 1016 10 16.0934 0 0
4:55 am 04:55 Cloudy 56 13.3 52 11.3 88 88 SSW 18 30 30 1016 10 16.0934 0 0
5:15 am 05:15 Cloudy 56 13.4 52 11.2 87 87 SSW 17 28 29.99 1016 10 16.0934 0 0
5:35 am 05:35 Cloudy with Heavy Rain 56 13.2 53 11.5 90 90 SSW 16 26 30 1016 5 8.0467 0 0
5:55 am 05:55 Cloudy with Rain 55 12.9 53 11.7 92 92 SSW 20 31 30 1016 7 11.26538 0 0
6:15 am 06:15 Cloudy with Rain 55 12.8 53 11.9 94 94 SSW 17 28 30.01 1016 7 11.26538 0 0
6:35 am 06:35 Cloudy with Rain 55 12.7 53 11.8 94 94 SSW 14 22 29.99 1016 7 11.26538 0 0
6:55 am 06:55 Cloudy with Light Rain 55 12.9 53 11.7 92 92 SSW 15 24 29.99 1016 10 16.0934 0.01 0.254
7:15 am 07:15 Cloudy with Rain 55 12.8 53 11.8 94 94 S 14 22 29.98 1015 7 11.26538 0 0
7:35 am 07:35 Cloudy with Rain 55 12.8 53 11.8 94 94 SSW 16 26 30 1016 7 11.26538 0 0
7:55 am 07:55 Cloudy with Rain 55 12.7 54 12 96 96 SSW 15 24 30.01 1016 3.5 5.63269 0 0
8:15 am 08:15 Cloudy with Rain 55 12.6 54 12 96 96 SSW 14 22 30 1016 5 8.0467 0 0
8:35 am 08:35 Cloudy with Rain 55 12.7 54 12.2 97 97 SSW 12 19 30 1016 2 3.21868 0 0
8:55 am 08:55 Cloudy with Light Rain 55 12.6 54 12.2 97 97 SSW 7 11 30 1016 2.5 4.02335 0 0
9:15 am 09:15 Cloudy with Rain 55 12.5 54 12.2 98 98 SSW 8 13 30.01 1016 2.5 4.02335 0 0
9:35 am 09:35 Cloudy with Light Rain 55 12.6 54 12.3 98 98 SSW 10 17 30.01 1016 5 8.0467 0 0
9:55 am 09:55 Cloudy with Light Rain 55 12.8 55 12.5 98 98 W 9 15 30.04 1017 1.75 2.816345 0 0
10:15 am 10:15 Cloudy 56 13.2 54 12.3 94 94 WNW 12 19 30.05 1018 10 16.0934 0 0
10:35 am 10:35 Cloudy 55 12.9 52 11.2 90 90 WNW 14 22 30.07 1018 10 16.0934 0 0
10:55 am 10:55 Cloudy 54 12.4 51 10.5 88 88 WNW 9 15 30.08 1019 10 16.0934 0 0
11:15 am 11:15 Cloudy 54 12.2 49 9.7 85 85 WNW 13 20 30.1 1019 10 16.0934 0 0
11:35 am 11:35 Cloudy 54 12 50 9.8 87 87 WNW 9 15 30.11 1020 10 16.0934 0 0
11:55 am 11:55 Cloudy 53 11.6 49 9.4 86 86 NW 12 19 30.12 1020 10 16.0934 0 0
12:15 pm 12:15 Cloudy 54 12.3 50 9.9 85 85 NW 9 15 30.13 1020 10 16.0934 0 0
12:35 pm 12:35 Cloudy 55 12.6 48 9 79 79 NW 12 19 30.13 1020 10 16.0934 0 0
12:55 pm 12:55 Cloudy 53 11.9 47 8.1 78 78 NW 12 19 30.15 1021 10 16.0934 0 0
1:15 pm 13:15 Cloudy 54 12.3 47 8.4 77 77 NW 15 24 30.16 1021 10 16.0934 0 0
1:35 pm 13:35 Cloudy 53 11.6 46 8 79 79 WNW 9 15 30.17 1022 10 16.0934 0 0
1:55 pm 13:55 Cloudy 55 13 47 8.3 73 73 NW 12 19 30.16 1021 10 16.0934 0 0
2:15 pm 14:15 Cloudy 54 12.3 46 7.7 74 74 WNW 12 19 30.16 1021 10 16.0934 0 0
2:35 pm 14:35 Cloudy 54 12.4 46 8 75 75 W 10 17 30.15 1021 10 16.0934 0 0
2:55 pm 14:55 Cloudy 54 12.2 46 7.6 74 74 WNW 13 20 30.15 1021 10 16.0934 0 0
3:15 pm 15:15 Cloudy 54 12.4 47 8.1 75 75 WNW 12 19 30.15 1021 10 16.0934 0 0
3:35 pm 15:35 Cloudy 55 12.7 46 7.5 71 71 NW 10 17 30.15 1021 10 16.0934 0 0
3:55 pm 15:55 Cloudy 54 12.1 45 7.4 73 73 NW 10 17 30.17 1022 10 16.0934 0 0
4:15 pm 16:15 Cloudy 54 12 46 7.6 75 75 WNW 10 17 30.17 1022 10 16.0934 0 0
4:35 pm 16:35 Cloudy 53 11.7 46 7.5 76 76 WNW 9 15 30.17 1022 10 16.0934 0 0
4:55 pm 16:55 Cloudy 52 11 45 7.1 77 77 NW 10 17 30.19 1022 10 16.0934 0 0
5:15 pm 17:15 Cloudy 52 10.9 44 6.9 77 77 W 10 17 30.19 1022 10 16.0934 0 0
5:35 pm 17:35 Cloudy 51 10.7 44 6.6 76 76 NW 9 15 30.19 1022 10 16.0934 0 0
5:55 pm 17:55 Cloudy 51 10.7 44 6.7 77 77 WNW 8 13 30.2 1023 10 16.0934 0 0
6:15 pm 18:15 Cloudy 51 10.6 44 6.6 77 77 W 9 15 30.2 1023 10 16.0934 0 0
6:35 pm 18:35 Cloudy 51 10.4 44 6.6 78 78 WNW 9 15 30.2 1023 10 16.0934 0 0
6:55 pm 18:55 Cloudy 50 10.1 43 6.3 77 77 NW 10 17 30.21 1023 10 16.0934 0 0
7:15 pm 19:15 Cloudy 49 9.7 43 6.1 78 78 NW 9 15 30.21 1023 10 16.0934 0 0
7:35 pm 19:35 Cloudy 48 9.1 42 5.7 79 79 NNW 10 17 30.22 1023 10 16.0934 0 0
7:55 pm 19:55 Cloudy 47 8.4 42 5.4 82 82 NNW 13 20 30.22 1023 10 16.0934 0 0
8:15 pm 20:15 Cloudy 46 8 41 5.1 82 82 NNW 9 15 30.22 1024 10 16.0934 0 0
8:35 pm 20:35 Cloudy 46 7.7 41 5 83 83 N 9 15 30.24 1024 10 16.0934 0 0
8:55 pm 20:55 Cloudy 45 7.2 41 4.8 85 85 N 9 15 30.26 1025 10 16.0934 0 0
9:15 pm 21:15 Cloudy 44 6.9 40 4.6 85 85 NNE 7 11 30.27 1025 10 16.0934 0 0
9:35 pm 21:35 Cloudy 44 6.6 40 4.4 86 86 N 8 13 30.27 1025 10 16.0934 0 0
9:55 pm 21:55 Cloudy 44 6.4 40 4.3 87 87 N 6 9 30.27 1025 10 16.0934 0 0
10:15 pm 22:15 Cloudy 43 6.2 39 3.9 85 85 N 9 15 30.27 1025 10 16.0934 0 0
10:35 pm 22:35 Cloudy 43 6.2 39 3.9 85 85 N 5 7 30.26 1025 10 16.0934 0 0
10:55 pm 22:55 Cloudy 43 6.2 39 3.8 85 85 NNE 6 9 30.26 1025 10 16.0934 0 0
11:15 pm 23:15 Cloudy 43 6.2 39 3.8 85 85 N 6 9 30.26 1025 10 16.0934 0 0
11:35 pm 23:35 Cloudy 43 6.2 39 3.8 85 85 N 5 7 30.26 1025 10 16.0934 0 0
11:55 pm 23:55 Cloudy 43 6.1 39 3.9 86 86 N 5 7 30.26 1025 10 16.0934 0 0

Powered by AerisWeather